timestamp,wind_dir_avg,wind_spd_max_dir,wind_spd_avg,wind_spd_gust,battery_voltage,lat,long
2018-07-17 00:00:00+00:00,241.0,238.0,7.45,8.9,,47.59359,-54.27349
2018-07-17 00:10:00+00:00,238.0,240.0,6.52,7.56,,47.59359,-54.27349
2018-07-17 00:20:00+00:00,231.0,232.0,7.49,8.39,,47.59359,-54.27349
2018-07-17 00:30:00+00:00,241.0,242.0,7.27,8.51,,47.59359,-54.27349
2018-07-17 00:40:00+00:00,243.0,235.0,5.1,6.18,,47.59359,-54.27349
2018-07-17 00:50:00+00:00,235.0,231.0,5.28,5.76,,47.59359,-54.27349
2018-07-17 01:00:00+00:00,235.0,237.0,5.36,6.01,,47.59359,-54.27349
2018-07-17 01:10:00+00:00,214.0,215.0,4.18,5.04,,47.59359,-54.27349
2018-07-17 01:20:00+00:00,221.0,221.0,4.88,5.57,,47.59359,-54.27349
2018-07-17 01:30:00+00:00,219.0,219.0,3.79,4.29,,47.59359,-54.27349
2018-07-17 01:40:00+00:00,225.0,227.0,3.13,3.36,,47.59359,-54.27349
2018-07-17 01:50:00+00:00,226.0,223.0,2.75,2.94,,47.59359,-54.27349
2018-07-17 02:00:00+00:00,231.0,227.0,3.65,3.79,,47.59359,-54.27349
2018-07-17 02:10:00+00:00,255.0,254.0,2.42,2.54,,47.59359,-54.27349
2018-07-17 02:20:00+00:00,221.0,225.0,0.87,0.96,,47.59359,-54.27349
2018-07-17 02:30:00+00:00,171.0,166.0,1.16,1.38,,47.59359,-54.27349
2018-07-17 02:40:00+00:00,181.0,184.0,1.36,1.53,,47.59359,-54.27349
2018-07-17 02:50:00+00:00,177.0,179.0,1.66,1.77,,47.59359,-54.27349
2018-07-17 03:00:00+00:00,159.0,158.0,1.63,1.78,,47.59359,-54.27349
2018-07-17 03:10:00+00:00,139.0,143.0,0.83,0.97,,47.59359,-54.27349
2018-07-17 03:20:00+00:00,299.0,268.0,0.16,0.29,,47.59359,-54.27349
2018-07-17 03:30:00+00:00,48.0,49.0,0.89,1.06,,47.59359,-54.27349
2018-07-17 03:40:00+00:00,77.0,78.0,1.54,1.66,,47.59359,-54.27349
2018-07-17 03:50:00+00:00,58.0,56.0,1.57,1.79,,47.59359,-54.27349
2018-07-17 04:00:00+00:00,23.0,35.0,0.66,0.99,,47.59359,-54.27349
2018-07-17 04:10:00+00:00,65.0,75.0,0.63,1.37,,47.59359,-54.27349
2018-07-17 04:20:00+00:00,153.0,149.0,1.21,1.77,,47.59359,-54.27349
2018-07-17 04:30:00+00:00,136.0,141.0,2.51,2.98,,47.59359,-54.27349
2018-07-17 04:40:00+00:00,100.0,120.0,1.39,1.81,,47.59359,-54.27349
2018-07-17 04:50:00+00:00,98.0,80.0,1.26,1.57,,47.59359,-54.27349
2018-07-17 05:40:00+00:00,77.0,77.0,4.22,4.42,,47.59359,-54.27349
2018-07-17 05:50:00+00:00,62.0,61.0,4.71,5.12,,47.59359,-54.27349
2018-07-17 06:00:00+00:00,50.0,51.0,4.75,4.92,,47.59359,-54.27349
2018-07-17 06:10:00+00:00,56.0,60.0,4.47,4.7,,47.59359,-54.27349
2018-07-17 06:20:00+00:00,45.0,46.0,5.14,5.33,,47.59359,-54.27349
2018-07-17 06:30:00+00:00,51.0,51.0,4.53,4.81,,47.59359,-54.27349
2018-07-17 06:40:00+00:00,46.0,46.0,4.67,4.94,,47.59359,-54.27349
2018-07-17 06:50:00+00:00,39.0,37.0,3.27,3.45,,47.59359,-54.27349
2018-07-17 07:00:00+00:00,42.0,44.0,4.23,4.41,,47.59359,-54.27349
2018-07-17 07:10:00+00:00,39.0,40.0,3.49,3.64,,47.59359,-54.27349
2018-07-17 07:20:00+00:00,53.0,53.0,3.68,3.96,,47.59359,-54.27349
2018-07-17 07:30:00+00:00,74.0,72.0,3.61,3.69,,47.59359,-54.27349
2018-07-17 07:40:00+00:00,94.0,93.0,3.15,3.96,,47.59359,-54.27349
2018-07-17 07:50:00+00:00,98.0,91.0,3.19,4.15,,47.59359,-54.27349
2018-07-17 08:00:00+00:00,74.0,75.0,4.29,4.54,,47.59359,-54.27349
2018-07-17 08:10:00+00:00,89.0,85.0,3.78,6.02,,47.59359,-54.27349
2018-07-17 08:30:00+00:00,85.0,89.0,3.67,4.42,,47.59359,-54.27349
2018-07-17 08:40:00+00:00,78.0,79.0,4.66,4.82,,47.59359,-54.27349
2018-07-17 08:50:00+00:00,79.0,80.0,4.96,5.6,,47.59359,-54.27349
2018-07-17 09:00:00+00:00,71.0,70.0,4.62,4.88,,47.59359,-54.27349
2018-07-17 09:10:00+00:00,65.0,68.0,3.84,4.05,,47.59359,-54.27349
2018-07-17 09:30:00+00:00,62.0,61.0,4.17,4.5,,47.59359,-54.27349
2018-07-17 09:40:00+00:00,64.0,61.0,3.71,3.96,,47.59359,-54.27349
2018-07-17 09:50:00+00:00,67.0,67.0,4.75,5.12,,47.59359,-54.27349
2018-07-17 10:40:00+00:00,176.0,177.0,3.36,3.36,,47.59359,-54.27349
2018-07-17 12:10:00+00:00,223.0,240.0,5.82,8.08,,47.59359,-54.27349
2018-07-17 12:20:00+00:00,226.0,233.0,6.48,7.48,,47.59359,-54.27349
2018-07-17 12:30:00+00:00,231.0,233.0,8.73,9.55,,47.59359,-54.27349
2018-07-17 12:40:00+00:00,243.0,245.0,9.74,11.67,,47.59359,-54.27349
2018-07-17 12:50:00+00:00,228.0,225.0,6.35,7.07,,47.59359,-54.27349
2018-07-17 13:00:00+00:00,220.0,219.0,6.71,7.34,,47.59359,-54.27349
2018-07-17 13:10:00+00:00,228.0,230.0,6.59,7.33,,47.59359,-54.27349
2018-07-17 13:20:00+00:00,220.0,227.0,5.69,6.61,,47.59359,-54.27349
2018-07-17 13:30:00+00:00,219.0,220.0,7.17,7.59,,47.59359,-54.27349
2018-07-17 13:40:00+00:00,212.0,217.0,6.85,7.39,,47.59359,-54.27349
2018-07-17 13:50:00+00:00,242.0,245.0,6.65,7.44,,47.59359,-54.27349
2018-07-17 14:00:00+00:00,234.0,234.0,5.96,6.63,,47.59359,-54.27349
2018-07-17 14:10:00+00:00,232.0,237.0,6.76,7.47,,47.59359,-54.27349
2018-07-17 14:20:00+00:00,232.0,232.0,9.35,10.31,,47.59359,-54.27349
2018-07-17 14:30:00+00:00,233.0,234.0,7.86,8.97,,47.59359,-54.27349
2018-07-17 14:40:00+00:00,232.0,233.0,7.36,8.34,,47.59359,-54.27349
2018-07-17 14:50:00+00:00,219.0,220.0,7.65,8.6,,47.59359,-54.27349
2018-07-17 15:00:00+00:00,220.0,221.0,7.65,8.61,,47.59359,-54.27349
2018-07-17 15:10:00+00:00,220.0,218.0,7.06,7.58,,47.59359,-54.27349
2018-07-17 15:20:00+00:00,222.0,223.0,6.3,6.77,,47.59359,-54.27349
2018-07-17 15:30:00+00:00,224.0,227.0,7.05,7.64,,47.59359,-54.27349
2018-07-17 15:40:00+00:00,216.0,217.0,8.17,8.97,,47.59359,-54.27349
2018-07-17 15:50:00+00:00,217.0,216.0,7.91,8.63,,47.59359,-54.27349
2018-07-17 16:00:00+00:00,215.0,216.0,7.07,7.65,,47.59359,-54.27349
2018-07-17 16:10:00+00:00,214.0,215.0,7.61,8.56,,47.59359,-54.27349
2018-07-17 16:20:00+00:00,217.0,214.0,7.93,8.79,,47.59359,-54.27349
2018-07-17 16:30:00+00:00,219.0,219.0,7.92,8.61,,47.59359,-54.27349
2018-07-17 16:40:00+00:00,221.0,220.0,8.76,9.54,,47.59359,-54.27349
2018-07-17 16:50:00+00:00,220.0,221.0,9.45,10.5,,47.59359,-54.27349
2018-07-17 17:00:00+00:00,221.0,225.0,9.58,10.48,,47.59359,-54.27349
2018-07-17 17:10:00+00:00,221.0,222.0,10.39,11.59,,47.59359,-54.27349
2018-07-17 17:20:00+00:00,223.0,225.0,9.95,11.23,,47.59359,-54.27349
2018-07-17 17:30:00+00:00,223.0,224.0,9.38,10.23,,47.59359,-54.27349
2018-07-17 17:40:00+00:00,227.0,230.0,7.77,8.66,,47.59359,-54.27349
2018-07-17 17:50:00+00:00,216.0,215.0,7.44,8.36,,47.59359,-54.27349
2018-07-17 18:00:00+00:00,220.0,220.0,8.13,8.83,,47.59359,-54.27349
2018-07-17 18:10:00+00:00,224.0,227.0,8.51,9.52,,47.59359,-54.27349
2018-07-17 18:20:00+00:00,219.0,221.0,8.48,9.44,,47.59359,-54.27349
2018-07-17 18:30:00+00:00,216.0,217.0,8.8,9.67,,47.59359,-54.27349
2018-07-17 18:40:00+00:00,218.0,219.0,8.94,9.44,,47.59359,-54.27349
2018-07-17 18:50:00+00:00,213.0,214.0,9.68,10.33,,47.59359,-54.27349
2018-07-17 19:00:00+00:00,220.0,217.0,8.96,9.96,,47.59359,-54.27349
2018-07-17 19:10:00+00:00,224.0,220.0,9.15,10.1,,47.59359,-54.27349
2018-07-17 19:20:00+00:00,223.0,226.0,8.24,9.0,,47.59359,-54.27349
2018-07-17 19:30:00+00:00,221.0,222.0,8.96,10.24,,47.59359,-54.27349
2018-07-17 19:40:00+00:00,223.0,222.0,8.65,9.48,,47.59359,-54.27349
2018-07-17 19:50:00+00:00,223.0,223.0,9.27,10.69,,47.59359,-54.27349
2018-07-17 20:00:00+00:00,223.0,222.0,9.59,10.68,,47.59359,-54.27349
2018-07-17 20:10:00+00:00,227.0,227.0,8.38,9.74,,47.59359,-54.27349
2018-07-17 20:20:00+00:00,221.0,221.0,8.54,9.44,,47.59359,-54.27349
2018-07-17 20:30:00+00:00,221.0,222.0,10.38,12.17,,47.59359,-54.27349
2018-07-17 20:40:00+00:00,227.0,226.0,9.11,10.17,,47.59359,-54.27349
2018-07-17 20:50:00+00:00,227.0,229.0,9.45,10.26,,47.59359,-54.27349
2018-07-17 21:00:00+00:00,228.0,225.0,8.31,9.14,,47.59359,-54.27349
2018-07-17 21:10:00+00:00,225.0,224.0,9.52,10.56,,47.59359,-54.27349
2018-07-17 21:20:00+00:00,223.0,224.0,8.2,8.78,,47.59359,-54.27349
2018-07-17 21:30:00+00:00,222.0,223.0,8.03,8.59,,47.59359,-54.27349
2018-07-17 21:40:00+00:00,216.0,218.0,7.73,8.64,,47.59359,-54.27349
2018-07-17 21:50:00+00:00,220.0,220.0,7.8,8.64,,47.59359,-54.27349
2018-07-17 22:00:00+00:00,221.0,220.0,7.69,8.33,,47.59359,-54.27349
2018-07-17 22:10:00+00:00,224.0,224.0,6.85,7.93,,47.59359,-54.27349
2018-07-17 22:20:00+00:00,223.0,223.0,7.43,8.09,,47.59359,-54.27349
2018-07-17 22:30:00+00:00,228.0,228.0,7.02,7.62,,47.59359,-54.27349
2018-07-17 22:40:00+00:00,217.0,218.0,7.55,8.13,,47.59359,-54.27349
2018-07-17 22:50:00+00:00,217.0,218.0,6.42,6.92,,47.59359,-54.27349
2018-07-17 23:00:00+00:00,217.0,218.0,6.32,6.88,,47.59359,-54.27349
2018-07-17 23:10:00+00:00,210.0,212.0,5.64,6.28,,47.59359,-54.27349
2018-07-17 23:20:00+00:00,216.0,217.0,6.87,7.58,,47.59359,-54.27349
2018-07-17 23:30:00+00:00,216.0,217.0,7.53,8.62,,47.59359,-54.27349
2018-07-17 23:40:00+00:00,224.0,224.0,7.18,8.48,,47.59359,-54.27349
2018-07-17 23:50:00+00:00,226.0,225.0,9.2,10.31,,47.59359,-54.27349
